Sigfox identifier Datetime Temperature Humidity SNR
00393884 2018-10-09 08:51:25 20.7 42 21.6
00393884 2018-10-09 07:49:31 20.6 41 21.6
00393884 2018-10-09 06:47:36 20.6 41 21.5
00393884 2018-10-09 05:45:42 20.6 40 21.6
00393884 2018-10-09 04:43:49 20.6 40 21.5
00393884 2018-10-09 01:38:09 20.8 39 21.6
00393884 2018-10-09 00:36:14 20.8 39 21.5
00393884 2018-10-08 23:34:20 20.8 38 21.6
00393884 2018-10-08 22:32:26 20.8 38 21.2
00393884 2018-10-08 21:30:31 20.8 38 21.1
00393884 2018-10-08 20:28:35 20.8 38 20.3
00393884 2018-10-08 19:26:42 20.8 38 20.3
00393884 2018-10-08 18:24:48 20.9 38 19.9
00393884 2018-10-08 17:22:55 21 37 19.2
00393884 2018-10-08 16:21:00 20.9 37 17.5
00393884 2018-10-08 15:19:06 20.9 37 17.8
00393884 2018-10-08 14:17:08 20.8 37 18.1
00393884 2018-10-08 13:15:12 20.8 36 17.8
00393884 2018-10-08 12:13:18 20.8 37 15.6
00393884 2018-10-08 11:11:22 20.6 34 18.3
00393884 2018-10-08 10:09:30 20.5 42 0